Time,TemperatureF,DewpointF,PressureIn,WindDirection,WindDirectionDegrees,WindSpeedMPH,WindSpeedGustMPH,Humidity,HourlyPrecipIn,Conditions,Clouds,dailyrainin,SolarRadiationWatts/m^2,SoftwareType,DateUTC
2013-05-05 00:03:00,63.2,7.8,30.04,ESE,115,2.0,20.0,11,0.00,,BKN250,0.00,0.00,VWS V14.01,2013-05-05 06:03:00,
2013-05-05 00:09:00,63.1,7.8,30.04,East,98,1.0,20.0,11,0.00,,BKN250,0.00,0.00,VWS V14.01,2013-05-05 06:09:00,
2013-05-05 00:14:00,62.9,7.6,30.04,ESE,121,11.0,15.0,11,0.00,,BKN250,0.00,0.00,VWS V14.01,2013-05-05 06:14:00,
2013-05-05 00:19:00,62.9,7.6,30.04,East,91,7.0,23.0,11,0.00,,BKN250,0.00,0.00,VWS V14.01,2013-05-05 06:19:00,
2013-05-05 00:24:00,62.7,7.4,30.04,ESE,115,12.0,12.0,11,0.00,,BKN250,0.00,0.00,VWS V14.01,2013-05-05 06:24:00,
2013-05-05 00:29:00,62.7,9.4,30.04,East,86,6.0,19.0,12,0.00,,BKN250,0.00,0.00,VWS V14.01,2013-05-05 06:29:00,
2013-05-05 00:34:00,62.5,9.2,30.04,ESE,113,8.0,15.0,12,0.00,,BKN250,0.00,0.00,VWS V14.01,2013-05-05 06:34:00,
2013-05-05 00:39:00,62.3,9.1,30.04,ESE,102,15.0,24.0,12,0.00,,BKN250,0.00,0.00,VWS V14.01,2013-05-05 06:39:00,
2013-05-05 00:44:00,62.2,9.0,30.04,SE,139,4.0,15.0,12,0.00,,BKN250,0.00,0.00,VWS V14.01,2013-05-05 06:44:00,
2013-05-05 00:49:00,62.1,8.9,30.04,ESE,115,4.0,20.0,12,0.00,,BKN250,0.00,0.00,VWS V14.01,2013-05-05 06:49:00,
2013-05-05 00:54:00,62.0,10.6,30.04,ESE,111,5.0,15.0,13,0.00,,BKN250,0.00,0.00,VWS V14.01,2013-05-05 06:54:00,
2013-05-05 00:59:00,61.8,10.5,30.05,SE,140,0.0,17.0,13,0.00,,BKN250,0.00,0.00,VWS V14.01,2013-05-05 06:59:00,
2013-05-05 01:04:00,61.6,10.3,30.05,East,82,6.0,13.0,13,0.00,,BKN250,0.00,0.00,VWS V14.01,2013-05-05 07:04:00,
2013-05-05 01:09:00,61.4,10.1,30.05,ESE,104,10.0,15.0,13,0.00,,BKN250,0.00,0.00,VWS V14.01,2013-05-05 07:09:00,
2013-05-05 01:14:00,61.2,11.6,30.05,ESE,112,4.0,13.0,14,0.00,,BKN250,0.00,0.00,VWS V14.01,2013-05-05 07:14:00,
2013-05-05 01:19:00,61.0,11.5,30.05,East,82,10.0,15.0,14,0.00,,BKN250,0.00,0.00,VWS V14.01,2013-05-05 07:19:00,
2013-05-05 01:24:00,60.9,11.4,30.05,East,97,2.0,15.0,14,0.00,,BKN250,0.00,0.00,VWS V14.01,2013-05-05 07:24:00,
2013-05-05 01:29:00,60.7,12.8,30.05,East,86,10.0,19.0,15,0.00,,BKN250,0.00,0.00,VWS V14.01,2013-05-05 07:29:00,
2013-05-05 01:34:00,60.6,12.7,30.05,ESE,113,8.0,17.0,15,0.00,,BKN250,0.00,0.00,VWS V14.01,2013-05-05 07:34:00,
2013-05-05 01:39:00,60.5,12.6,30.06,SSE,151,7.0,18.0,15,0.00,,BKN250,0.00,0.00,VWS V14.01,2013-05-05 07:39:00,
2013-05-05 01:44:00,60.4,12.6,30.05,SE,134,11.0,18.0,15,0.00,,BKN250,0.00,0.00,VWS V14.01,2013-05-05 07:44:00,
2013-05-05 01:49:00,60.4,12.6,30.06,East,101,15.0,18.0,15,0.00,,BKN250,0.00,0.00,VWS V14.01,2013-05-05 07:49:00,
2013-05-05 01:54:00,60.3,13.9,30.05,SSE,163,3.0,22.0,16,0.00,,BKN250,0.00,0.00,VWS V14.01,2013-05-05 07:54:00,
2013-05-05 01:59:00,60.2,13.9,30.06,East,99,13.0,17.0,16,0.00,,BKN250,0.00,0.00,VWS V14.01,2013-05-05 07:59:00,
2013-05-05 02:04:00,60.1,13.8,30.05,ESE,118,18.0,26.0,16,0.00,,SCT210,0.00,0.00,VWS V14.01,2013-05-05 08:04:00,
2013-05-05 02:09:00,60.0,13.7,30.06,ESE,107,10.0,26.0,16,0.00,,SCT210,0.00,0.00,VWS V14.01,2013-05-05 08:09:00,
2013-05-05 02:14:00,59.8,13.5,30.06,ESE,103,13.0,13.0,16,0.00,,SCT210,0.00,0.00,VWS V14.01,2013-05-05 08:14:00,
2013-05-05 02:19:00,59.7,14.8,30.06,ESE,113,10.0,10.0,17,0.00,,SCT210,0.00,0.00,VWS V14.01,2013-05-05 08:19:00,
2013-05-05 02:24:00,59.5,14.7,30.06,ESE,123,12.0,12.0,17,0.00,,SCT210,0.00,0.00,VWS V14.01,2013-05-05 08:24:00,
2013-05-05 02:29:00,59.3,14.5,30.06,SE,134,2.0,18.0,17,0.00,,SCT210,0.00,0.00,VWS V14.01,2013-05-05 08:29:00,
2013-05-05 02:34:00,59.1,14.4,30.06,ESE,121,13.0,13.0,17,0.00,,SCT210,0.00,0.00,VWS V14.01,2013-05-05 08:34:00,
2013-05-05 02:39:00,58.9,14.2,30.06,ESE,121,9.0,10.0,17,0.00,,SCT210,0.00,0.00,VWS V14.01,2013-05-05 08:39:00,
2013-05-05 02:44:00,58.8,14.1,30.06,ESE,116,8.0,8.0,17,0.00,,SCT210,0.00,0.00,VWS V14.01,2013-05-05 08:44:00,
2013-05-05 02:50:00,58.7,14.0,30.06,East,84,11.0,15.0,17,0.00,,SCT210,0.00,0.00,VWS V14.01,2013-05-05 08:50:00,
2013-05-05 02:55:00,58.5,13.9,30.07,ESE,120,9.0,13.0,17,0.00,,SCT210,0.00,0.00,VWS V14.01,2013-05-05 08:55:00,
2013-05-05 03:00:00,58.3,13.7,30.07,ENE,68,18.0,18.0,17,0.00,,SCT210,0.00,0.00,VWS V14.01,2013-05-05 09:00:00,
2013-05-05 03:05:00,58.1,14.8,30.07,East,86,6.0,18.0,18,0.00,,BKN230,0.00,0.00,VWS V14.01,2013-05-05 09:05:00,
2013-05-05 03:10:00,57.8,14.6,30.07,ESE,103,11.0,11.0,18,0.00,,BKN230,0.00,0.00,VWS V14.01,2013-05-05 09:10:00,
2013-05-05 03:15:00,57.7,14.5,30.07,East,89,5.0,7.0,18,0.00,,BKN230,0.00,0.00,VWS V14.01,2013-05-05 09:15:00,
2013-05-05 03:20:00,57.5,15.6,30.07,East,93,3.0,11.0,19,0.00,,BKN230,0.00,0.00,VWS V14.01,2013-05-05 09:20:00,
2013-05-05 03:25:00,57.2,15.3,30.08,ESE,107,5.0,11.0,19,0.00,,BKN230,0.00,0.00,VWS V14.01,2013-05-05 09:25:00,
2013-05-05 03:30:00,56.9,16.3,30.08,SSE,165,8.0,8.0,20,0.00,,BKN230,0.00,0.00,VWS V14.01,2013-05-05 09:30:00,
2013-05-05 03:35:00,56.6,16.0,30.08,East,97,6.0,15.0,20,0.00,,BKN230,0.00,0.00,VWS V14.01,2013-05-05 09:35:00,
2013-05-05 03:40:00,56.4,17.0,30.08,ESE,115,2.0,11.0,21,0.00,,BKN230,0.00,0.00,VWS V14.01,2013-05-05 09:40:00,
2013-05-05 03:45:00,56.1,16.7,30.08,East,82,8.0,18.0,21,0.00,,BKN230,0.00,0.00,VWS V14.01,2013-05-05 09:45:00,
2013-05-05 03:50:00,55.9,16.5,30.08,ESE,105,5.0,17.0,21,0.00,,BKN230,0.00,0.00,VWS V14.01,2013-05-05 09:50:00,
2013-05-05 03:55:00,55.6,17.4,30.08,ENE,74,5.0,14.0,22,0.00,,BKN230,0.00,0.00,VWS V14.01,2013-05-05 09:55:00,
2013-05-05 04:00:00,55.5,17.3,30.08,ENE,72,7.0,11.0,22,0.00,,BKN230,0.00,0.00,VWS V14.01,2013-05-05 10:00:00,
2013-05-05 04:05:00,55.3,17.1,30.08,ENE,74,13.0,14.0,22,0.00,,BKN300,0.00,0.00,VWS V14.01,2013-05-05 10:05:00,
2013-05-05 04:10:00,55.3,17.1,30.09,ESE,111,4.0,14.0,22,0.00,,BKN300,0.00,0.00,VWS V14.01,2013-05-05 10:10:00,
2013-05-05 04:16:00,55.1,17.0,30.09,ESE,108,4.0,13.0,22,0.00,,BKN300,0.00,0.00,VWS V14.01,2013-05-05 10:16:00,
2013-05-05 04:21:00,55.0,17.9,30.08,ENE,76,9.0,13.0,23,0.00,,BKN300,0.00,0.00,VWS V14.01,2013-05-05 10:21:00,
2013-05-05 04:26:00,55.0,17.9,30.09,SE,130,7.0,11.0,23,0.00,,BKN300,0.00,0.00,VWS V14.01,2013-05-05 10:26:00,
2013-05-05 04:31:00,54.9,16.8,30.09,ESE,110,4.0,19.0,22,0.00,,BKN300,0.00,0.00,VWS V14.01,2013-05-05 10:31:00,
2013-05-05 04:36:00,54.9,16.8,30.09,SSE,151,6.0,17.0,22,0.00,,BKN300,0.00,0.00,VWS V14.01,2013-05-05 10:36:00,
2013-05-05 04:41:00,54.8,16.7,30.09,SE,127,3.0,12.0,22,0.00,,BKN300,0.00,0.00,VWS V14.01,2013-05-05 10:41:00,
2013-05-05 04:46:00,54.7,17.6,30.09,East,101,0.0,11.0,23,0.00,,BKN300,0.00,0.00,VWS V14.01,2013-05-05 10:46:00,
2013-05-05 04:51:00,54.5,17.5,30.09,East,85,13.0,18.0,23,0.00,,BKN300,0.00,0.00,VWS V14.01,2013-05-05 10:51:00,
2013-05-05 04:56:00,54.4,17.4,30.10,ESE,119,3.0,14.0,23,0.00,,BKN300,0.00,0.00,VWS V14.01,2013-05-05 10:56:00,
2013-05-05 05:01:00,54.3,17.3,30.10,SE,131,6.0,11.0,23,0.00,,BKN300,0.00,0.00,VWS V14.01,2013-05-05 11:01:00,
2013-05-05 05:06:00,54.2,17.2,30.10,SE,124,3.0,11.0,23,0.00,,BKN300,0.00,0.00,VWS V14.01,2013-05-05 11:06:00,
2013-05-05 05:11:00,54.1,17.1,30.10,SE,133,5.0,9.0,23,0.00,,BKN300,0.00,0.00,VWS V14.01,2013-05-05 11:11:00,
2013-05-05 05:16:00,54.0,18.0,30.10,ESE,112,1.0,6.0,24,0.00,,BKN300,0.00,0.00,VWS V14.01,2013-05-05 11:16:00,
2013-05-05 05:21:00,53.8,17.9,30.11,East,88,0.0,7.0,24,0.00,,BKN300,0.00,0.00,VWS V14.01,2013-05-05 11:21:00,
2013-05-05 05:26:00,53.7,17.8,30.11,East,99,6.0,11.0,24,0.00,,BKN300,0.00,0.00,VWS V14.01,2013-05-05 11:26:00,
2013-05-05 05:31:00,53.6,17.7,30.11,East,86,2.0,2.0,24,0.00,,BKN300,0.00,0.00,VWS V14.01,2013-05-05 11:31:00,
2013-05-05 05:36:00,53.5,17.6,30.11,ESE,103,0.0,4.0,24,0.00,,BKN300,0.00,0.00,VWS V14.01,2013-05-05 11:36:00,
2013-05-05 05:41:00,53.3,17.5,30.11,ESE,109,0.0,7.0,24,0.00,,BKN300,0.00,0.00,VWS V14.01,2013-05-05 11:41:00,
2013-05-05 05:46:00,53.2,17.4,30.11,ESE,111,0.0,6.0,24,0.00,,BKN300,0.00,0.00,VWS V14.01,2013-05-05 11:46:00,
2013-05-05 05:51:00,53.0,18.1,30.11,ESE,117,2.0,4.0,25,0.00,,BKN300,0.00,0.00,VWS V14.01,2013-05-05 11:51:00,
2013-05-05 05:56:00,52.9,18.0,30.11,ESE,117,0.0,1.0,25,0.00,,BKN300,0.00,0.00,VWS V14.01,2013-05-05 11:56:00,
2013-05-05 06:01:00,52.8,18.0,30.12,ESE,117,0.0,1.0,25,0.00,,BKN220,0.00,0.00,VWS V14.01,2013-05-05 12:01:00,
2013-05-05 06:06:00,52.6,17.8,30.12,ESE,117,0.0,1.0,25,0.00,,BKN220,0.00,0.00,VWS V14.01,2013-05-05 12:06:00,
2013-05-05 06:11:00,52.5,17.7,30.12,SSE,161,2.0,4.0,25,0.00,,BKN220,0.00,0.00,VWS V14.01,2013-05-05 12:11:00,
2013-05-05 06:17:00,52.4,17.6,30.12,SSE,159,0.0,3.0,25,0.00,,BKN220,0.00,9.00,VWS V14.01,2013-05-05 12:17:00,
2013-05-05 06:22:00,52.4,17.6,30.12,SSE,159,0.0,1.0,25,0.00,,BKN220,0.00,12.00,VWS V14.01,2013-05-05 12:22:00,
2013-05-05 06:27:00,52.4,17.6,30.13,SSE,159,0.0,3.0,25,0.00,,BKN220,0.00,16.00,VWS V14.01,2013-05-05 12:27:00,
2013-05-05 06:32:00,52.3,17.5,30.13,SSE,162,0.0,5.0,25,0.00,,BKN220,0.00,19.00,VWS V14.01,2013-05-05 12:32:00,
2013-05-05 06:37:00,52.2,17.5,30.14,SSE,162,0.0,3.0,25,0.00,,BKN220,0.00,21.00,VWS V14.01,2013-05-05 12:37:00,
2013-05-05 06:42:00,52.3,17.5,30.14,SSE,162,0.0,2.0,25,0.00,,BKN220,0.00,26.00,VWS V14.01,2013-05-05 12:42:00,
2013-05-05 06:47:00,52.3,18.5,30.14,ESE,115,0.0,7.0,26,0.00,,BKN220,0.00,28.00,VWS V14.01,2013-05-05 12:47:00,
2013-05-05 06:52:00,52.3,18.5,30.14,SSE,163,0.0,5.0,26,0.00,,BKN220,0.00,33.00,VWS V14.01,2013-05-05 12:52:00,
2013-05-05 06:57:00,52.4,17.6,30.14,ESE,119,0.0,6.0,25,0.00,,BKN220,0.00,77.00,VWS V14.01,2013-05-05 12:57:00,
2013-05-05 07:02:00,52.4,18.5,30.15,SE,142,2.0,3.0,26,0.00,,BKN220,0.00,102.00,VWS V14.01,2013-05-05 13:02:00,
2013-05-05 07:07:00,52.6,18.7,30.15,SSE,161,3.0,4.0,26,0.00,,BKN220,0.00,127.00,VWS V14.01,2013-05-05 13:07:00,
2013-05-05 07:12:00,52.8,18.9,30.15,SE,144,2.0,10.0,26,0.00,,BKN220,0.00,163.00,VWS V14.01,2013-05-05 13:12:00,
2013-05-05 07:17:00,53.3,18.4,30.15,South,178,3.0,5.0,25,0.00,,BKN220,0.00,204.00,VWS V14.01,2013-05-05 13:17:00,
2013-05-05 07:22:00,53.9,19.8,30.15,SE,125,0.0,7.0,26,0.00,,BKN220,0.00,211.00,VWS V14.01,2013-05-05 13:22:00,
2013-05-05 07:27:00,54.3,19.2,30.15,SE,144,0.0,5.0,25,0.00,,BKN220,0.00,88.00,VWS V14.01,2013-05-05 13:27:00,
2013-05-05 07:32:00,54.5,19.4,30.15,SSE,157,0.0,5.0,25,0.00,,SCT140,0.00,86.00,VWS V14.01,2013-05-05 13:32:00,
2013-05-05 07:37:00,54.6,18.5,30.15,ESE,113,2.0,10.0,24,0.00,,SCT140,0.00,139.00,VWS V14.01,2013-05-05 13:37:00,
2013-05-05 07:42:00,54.9,19.8,30.15,ENE,57,0.0,3.0,25,0.00,,SCT140,0.00,246.00,VWS V14.01,2013-05-05 13:42:00,
2013-05-05 07:47:00,55.3,20.1,30.16,SSE,160,2.0,3.0,25,0.00,,SCT140,0.00,162.00,VWS V14.01,2013-05-05 13:47:00,
2013-05-05 07:52:00,55.5,21.2,30.16,SSE,151,1.0,5.0,26,0.00,,SCT140,0.00,134.00,VWS V14.01,2013-05-05 13:52:00,
2013-05-05 07:57:00,55.7,20.4,30.16,SE,130,0.0,8.0,25,0.00,,SCT140,0.00,174.00,VWS V14.01,2013-05-05 13:57:00,
2013-05-05 08:02:00,55.9,20.6,30.16,SSE,148,0.0,4.0,25,0.00,,BKN200,0.00,200.00,VWS V14.01,2013-05-05 14:02:00,
2013-05-05 08:07:00,56.2,20.9,30.16,ENE,57,1.0,5.0,25,0.00,,BKN200,0.00,174.00,VWS V14.01,2013-05-05 14:07:00,
2013-05-05 08:12:00,56.3,20.0,30.16,East,96,2.0,6.0,24,0.00,,BKN200,0.00,142.00,VWS V14.01,2013-05-05 14:12:00,
2013-05-05 08:17:00,56.3,21.0,30.15,ESE,120,2.0,3.0,25,0.00,,BKN200,0.00,107.00,VWS V14.01,2013-05-05 14:17:00,
2013-05-05 08:22:00,56.3,21.0,30.15,ESE,121,0.0,2.0,25,0.00,,BKN200,0.00,86.00,VWS V14.01,2013-05-05 14:22:00,
2013-05-05 08:27:00,56.0,20.7,30.15,ESE,119,0.0,2.0,25,0.00,,BKN200,0.00,123.00,VWS V14.01,2013-05-05 14:27:00,
2013-05-05 08:32:00,56.0,21.6,30.16,ESE,119,0.0,2.0,26,0.00,,BKN200,0.00,255.00,VWS V14.01,2013-05-05 14:32:00,
2013-05-05 08:37:00,56.8,22.3,30.16,ESE,119,0.0,2.0,26,0.00,,BKN200,0.00,276.00,VWS V14.01,2013-05-05 14:37:00,
2013-05-05 08:42:00,57.7,23.1,30.16,East,99,0.0,3.0,26,0.00,,BKN200,0.00,353.00,VWS V14.01,2013-05-05 14:42:00,
2013-05-05 08:47:00,58.3,21.7,30.16,East,99,0.0,3.0,24,0.00,,BKN200,0.00,276.00,VWS V14.01,2013-05-05 14:47:00,
2013-05-05 08:52:00,58.7,21.0,30.17,SSW,194,2.0,5.0,23,0.00,,BKN200,0.00,526.00,VWS V14.01,2013-05-05 14:52:00,
2013-05-05 08:57:00,59.1,20.3,30.17,South,174,0.0,6.0,22,0.00,,BKN200,0.00,378.00,VWS V14.01,2013-05-05 14:57:00,
2013-05-05 09:02:00,59.6,19.6,30.17,SE,143,3.0,7.0,21,0.00,,BKN190,0.00,605.00,VWS V14.01,2013-05-05 15:02:00,
2013-05-05 09:07:00,59.7,19.7,30.17,South,171,3.0,7.0,21,0.00,,BKN190,0.00,244.00,VWS V14.01,2013-05-05 15:07:00,
2013-05-05 09:12:00,60.1,20.1,30.17,SSW,196,5.0,6.0,21,0.00,,BKN190,0.00,645.00,VWS V14.01,2013-05-05 15:12:00,
2013-05-05 09:17:00,60.5,20.4,30.17,SE,130,3.0,10.0,21,0.00,,BKN190,0.00,526.00,VWS V14.01,2013-05-05 15:17:00,
2013-05-05 09:22:00,61.0,19.7,30.17,SSE,151,1.0,7.0,20,0.00,,BKN190,0.00,647.00,VWS V14.01,2013-05-05 15:22:00,
2013-05-05 09:27:00,61.3,19.9,30.16,ESE,113,5.0,10.0,20,0.00,,BKN190,0.00,650.00,VWS V14.01,2013-05-05 15:27:00,
2013-05-05 09:32:00,62.5,19.7,30.16,SSE,166,3.0,11.0,19,0.00,,BKN190,0.00,682.00,VWS V14.01,2013-05-05 15:32:00,
2013-05-05 09:37:00,63.4,22.8,30.17,SSE,163,3.0,6.0,21,0.00,,BKN190,0.00,766.00,VWS V14.01,2013-05-05 15:37:00,
2013-05-05 09:42:00,64.1,21.0,30.17,South,176,0.0,6.0,19,0.00,,BKN190,0.00,348.00,VWS V14.01,2013-05-05 15:42:00,
2013-05-05 09:47:00,63.9,19.6,30.17,SSE,154,3.0,5.0,18,0.00,,BKN190,0.00,239.00,VWS V14.01,2013-05-05 15:47:00,
2013-05-05 09:52:00,63.5,20.5,30.17,SSE,154,2.0,6.0,19,0.00,,BKN190,0.00,229.00,VWS V14.01,2013-05-05 15:52:00,
2013-05-05 09:57:00,62.8,20.0,30.17,SE,138,2.0,4.0,19,0.00,,BKN190,0.00,253.00,VWS V14.01,2013-05-05 15:57:00,
2013-05-05 10:02:00,62.3,20.8,30.17,SE,145,1.0,5.0,20,0.00,,BKN250,0.00,229.00,VWS V14.01,2013-05-05 16:02:00,
2013-05-05 10:07:00,62.0,19.3,30.17,South,175,0.0,5.0,19,0.00,,BKN250,0.00,211.00,VWS V14.01,2013-05-05 16:07:00,
2013-05-05 10:12:00,61.8,19.1,30.17,SE,131,0.0,6.0,19,0.00,,BKN250,0.00,336.00,VWS V14.01,2013-05-05 16:12:00,
2013-05-05 10:17:00,61.9,19.2,30.16,ESE,113,4.0,6.0,19,0.00,,BKN250,0.00,462.00,VWS V14.01,2013-05-05 16:17:00,
2013-05-05 10:22:00,62.5,19.7,30.16,SSE,159,2.0,8.0,19,0.00,,BKN250,0.00,485.00,VWS V14.01,2013-05-05 16:22:00,
2013-05-05 10:27:00,63.3,20.4,30.16,SSE,154,4.0,5.0,19,0.00,,BKN250,0.00,817.00,VWS V14.01,2013-05-05 16:27:00,
2013-05-05 10:33:00,64.0,19.7,30.16,South,178,2.0,7.0,18,0.00,,BKN250,0.00,765.00,VWS V14.01,2013-05-05 16:33:00,
2013-05-05 10:38:00,64.4,20.0,30.16,SSW,194,1.0,6.0,18,0.00,,BKN250,0.00,752.00,VWS V14.01,2013-05-05 16:38:00,
2013-05-05 10:43:00,65.0,20.5,30.16,SSE,151,3.0,7.0,18,0.00,,BKN250,0.00,786.00,VWS V14.01,2013-05-05 16:43:00,
2013-05-05 10:48:00,65.7,21.1,30.16,SSE,156,6.0,9.0,18,0.00,,BKN250,0.00,933.00,VWS V14.01,2013-05-05 16:48:00,
2013-05-05 10:53:00,66.1,21.4,30.16,South,175,3.0,5.0,18,0.00,,BKN250,0.00,933.00,VWS V14.01,2013-05-05 16:53:00,
2013-05-05 10:58:00,66.4,21.6,30.16,SSE,161,0.0,6.0,18,0.00,,BKN250,0.00,1086.00,VWS V14.01,2013-05-05 16:58:00,
2013-05-05 11:03:00,66.8,19.2,30.16,East,87,2.0,8.0,16,0.00,,BKN150,0.00,1086.00,VWS V14.01,2013-05-05 17:03:00,
2013-05-05 11:08:00,67.1,20.9,30.16,ESE,122,1.0,8.0,17,0.00,,BKN150,0.00,1086.00,VWS V14.01,2013-05-05 17:08:00,
2013-05-05 11:13:00,67.0,20.8,30.15,SSE,167,0.0,7.0,17,0.00,,BKN150,0.00,492.00,VWS V14.01,2013-05-05 17:13:00,
2013-05-05 11:18:00,67.3,22.4,30.15,SE,144,0.0,8.0,18,0.00,,BKN150,0.00,492.00,VWS V14.01,2013-05-05 17:18:00,
2013-05-05 11:23:00,68.3,21.8,30.15,SE,126,0.0,5.0,17,0.00,,BKN150,0.00,540.00,VWS V14.01,2013-05-05 17:23:00,
2013-05-05 11:28:00,68.4,21.9,30.15,ESE,119,2.0,5.0,17,0.00,,BKN150,0.00,1092.00,VWS V14.01,2013-05-05 17:28:00,
2013-05-05 11:33:00,69.0,22.4,30.15,SSE,158,0.0,6.0,17,0.00,,BKN150,0.00,997.00,VWS V14.01,2013-05-05 17:33:00,
2013-05-05 11:38:00,69.0,21.0,30.15,South,176,2.0,6.0,16,0.00,,BKN150,0.00,418.00,VWS V14.01,2013-05-05 17:38:00,
2013-05-05 11:43:00,68.5,20.6,30.15,South,175,0.0,7.0,16,0.00,,BKN150,0.00,387.00,VWS V14.01,2013-05-05 17:43:00,
2013-05-05 11:48:00,68.1,21.7,30.15,South,170,4.0,7.0,17,0.00,,BKN150,0.00,993.00,VWS V14.01,2013-05-05 17:48:00,
2013-05-05 11:53:00,68.4,21.9,30.15,South,182,1.0,5.0,17,0.00,,BKN150,0.00,418.00,VWS V14.01,2013-05-05 17:53:00,
2013-05-05 11:59:00,68.7,22.2,30.15,ESE,115,4.0,8.0,17,0.00,,BKN150,0.00,1230.00,VWS V14.01,2013-05-05 17:59:00,
2013-05-05 12:04:00,69.2,22.6,30.15,SE,141,2.0,6.0,17,0.00,,BKN150,0.00,1118.00,VWS V14.01,2013-05-05 18:04:00,
2013-05-05 12:09:00,69.3,21.2,30.14,South,174,6.0,8.0,16,0.00,,BKN150,0.00,436.00,VWS V14.01,2013-05-05 18:09:00,
2013-05-05 12:14:00,69.0,23.8,30.14,SSE,163,0.0,1.0,18,0.00,,BKN150,0.00,870.00,VWS V14.01,2013-05-05 18:14:00,
2013-05-05 12:19:00,69.2,22.6,30.14,South,180,4.0,6.0,17,0.00,,BKN150,0.00,341.00,VWS V14.01,2013-05-05 18:19:00,
2013-05-05 12:24:00,69.0,23.8,30.14,East,94,0.0,0.0,18,0.00,,BKN150,0.00,399.00,VWS V14.01,2013-05-05 18:24:00,
2013-05-05 12:29:00,69.2,23.9,30.14,ESE,123,0.0,0.0,18,0.00,,BKN150,0.00,504.00,VWS V14.01,2013-05-05 18:29:00,
2013-05-05 12:34:00,70.0,21.8,30.13,ENE,77,0.0,1.0,16,0.00,,BKN150,0.00,1227.00,VWS V14.01,2013-05-05 18:34:00,
2013-05-05 12:39:00,70.9,22.5,30.13,East,98,0.0,0.0,16,0.00,,BKN150,0.00,1151.00,VWS V14.01,2013-05-05 18:39:00,
2013-05-05 12:44:00,71.5,24.4,30.13,NE,34,0.0,0.0,17,0.00,,BKN150,0.00,962.00,VWS V14.01,2013-05-05 18:44:00,
2013-05-05 12:49:00,72.1,23.5,30.13,East,90,1.0,1.0,16,0.00,,BKN150,0.00,1000.00,VWS V14.01,2013-05-05 18:49:00,
2013-05-05 12:54:00,72.8,24.0,30.13,ESE,107,8.0,8.0,16,0.00,,BKN150,0.00,958.00,VWS V14.01,2013-05-05 18:54:00,
2013-05-05 12:59:00,73.2,22.8,30.12,ENE,77,0.0,4.0,15,0.00,,BKN150,0.00,953.00,VWS V14.01,2013-05-05 18:59:00,
2013-05-05 13:04:00,73.6,26.1,30.12,ENE,76,0.0,4.0,17,0.00,,BKN150,0.00,946.00,VWS V14.01,2013-05-05 19:04:00,
2013-05-05 13:09:00,74.6,23.9,30.11,East,97,3.0,5.0,15,0.00,,BKN150,0.00,940.00,VWS V14.01,2013-05-05 19:09:00,
2013-05-05 13:14:00,74.8,25.6,30.11,SE,130,0.0,1.0,16,0.00,,BKN150,0.00,923.00,VWS V14.01,2013-05-05 19:14:00,
2013-05-05 13:19:00,75.0,25.8,30.11,East,95,6.0,7.0,16,0.00,,BKN150,0.00,935.00,VWS V14.01,2013-05-05 19:19:00,
2013-05-05 13:24:00,74.9,22.5,30.11,East,101,7.0,7.0,14,0.00,,BKN150,0.00,919.00,VWS V14.01,2013-05-05 19:24:00,
2013-05-05 13:29:00,75.3,22.9,30.11,SE,132,3.0,5.0,14,0.00,,BKN150,0.00,942.00,VWS V14.01,2013-05-05 19:29:00,
2013-05-05 13:34:00,75.8,21.5,30.10,ENE,65,4.0,5.0,13,0.00,,BKN150,0.00,953.00,VWS V14.01,2013-05-05 19:34:00,
2013-05-05 13:40:00,76.2,23.6,30.10,East,98,1.0,6.0,14,0.00,,BKN150,0.00,951.00,VWS V14.01,2013-05-05 19:40:00,
2013-05-05 13:45:00,76.6,23.9,30.10,East,82,1.0,8.0,14,0.00,,BKN150,0.00,970.00,VWS V14.01,2013-05-05 19:45:00,
2013-05-05 13:50:00,76.9,24.1,30.09,ENE,66,7.0,8.0,14,0.00,,BKN150,0.00,942.00,VWS V14.01,2013-05-05 19:50:00,
2013-05-05 13:55:00,76.9,24.1,30.09,SE,140,0.0,1.0,14,0.00,,BKN150,0.00,872.00,VWS V14.01,2013-05-05 19:55:00,
2013-05-05 14:00:00,77.2,24.4,30.09,East,88,10.0,10.0,14,0.00,,BKN150,0.00,954.00,VWS V14.01,2013-05-05 20:00:00,
2013-05-05 14:05:00,77.6,27.9,30.09,ESE,114,0.0,10.0,16,0.00,,SCT200,0.00,914.00,VWS V14.01,2013-05-05 20:05:00,
2013-05-05 14:10:00,77.4,29.2,30.08,SW,214,7.0,8.0,17,0.00,,SCT200,0.00,914.00,VWS V14.01,2013-05-05 20:10:00,
2013-05-05 14:15:00,76.6,28.6,30.08,South,181,3.0,6.0,17,0.00,,SCT200,0.00,914.00,VWS V14.01,2013-05-05 20:15:00,
2013-05-05 14:20:00,76.3,29.7,30.08,SE,132,3.0,5.0,18,0.00,,SCT200,0.00,935.00,VWS V14.01,2013-05-05 20:20:00,
2013-05-05 14:25:00,76.4,31.1,30.08,South,177,0.0,1.0,19,0.00,,SCT200,0.00,942.00,VWS V14.01,2013-05-05 20:25:00,
2013-05-05 14:30:00,76.5,29.9,30.08,SW,225,5.0,10.0,18,0.00,,SCT200,0.00,944.00,VWS V14.01,2013-05-05 20:30:00,
2013-05-05 14:35:00,76.4,28.4,30.08,West,266,1.0,5.0,17,0.00,,SCT200,0.00,262.00,VWS V14.01,2013-05-05 20:35:00,
2013-05-05 14:40:00,76.3,29.7,30.08,SW,215,1.0,6.0,18,0.00,,SCT200,0.00,227.00,VWS V14.01,2013-05-05 20:40:00,
2013-05-05 14:45:00,75.8,30.6,30.08,SSE,150,0.0,2.0,19,0.00,,SCT200,0.00,283.00,VWS V14.01,2013-05-05 20:45:00,
2013-05-05 14:50:00,76.1,29.6,30.07,ESE,107,1.0,5.0,18,0.00,,SCT200,0.00,1037.00,VWS V14.01,2013-05-05 20:50:00,
2013-05-05 14:55:00,76.9,28.8,30.07,East,101,3.0,7.0,17,0.00,,SCT200,0.00,895.00,VWS V14.01,2013-05-05 20:55:00,
2013-05-05 15:00:00,78.1,31.2,30.06,South,176,0.0,4.0,18,0.00,,SCT200,0.00,1020.00,VWS V14.01,2013-05-05 21:00:00,
2013-05-05 15:05:00,78.9,30.4,30.06,ESE,117,0.0,9.0,17,0.00,,BKN200,0.00,817.00,VWS V14.01,2013-05-05 21:05:00,
2013-05-05 15:10:00,79.1,30.6,30.06,SSE,163,1.0,1.0,17,0.00,,BKN200,0.00,631.00,VWS V14.01,2013-05-05 21:10:00,
2013-05-05 15:15:00,78.2,29.9,30.06,South,177,2.0,4.0,17,0.00,,BKN200,0.00,292.00,VWS V14.01,2013-05-05 21:15:00,
2013-05-05 15:20:00,77.1,27.5,30.06,SE,145,6.0,9.0,16,0.00,,BKN200,0.00,362.00,VWS V14.01,2013-05-05 21:20:00,
2013-05-05 15:25:00,76.1,28.2,30.06,SSE,166,0.0,5.0,17,0.00,,BKN200,0.00,206.00,VWS V14.01,2013-05-05 21:25:00,
2013-05-05 15:30:00,75.4,26.1,30.06,SSW,192,3.0,15.0,16,0.00,,BKN200,0.00,237.00,VWS V14.01,2013-05-05 21:30:00,
2013-05-05 15:35:00,74.1,27.9,30.06,South,190,11.0,19.0,18,0.00,,BKN200,0.00,513.00,VWS V14.01,2013-05-05 21:35:00,
2013-05-05 15:40:00,73.4,28.7,30.07,South,178,7.0,17.0,19,0.00,,BKN200,0.00,381.00,VWS V14.01,2013-05-05 21:40:00,
2013-05-05 15:45:00,72.7,28.1,30.07,South,183,9.0,12.0,19,0.00,,BKN200,0.00,316.00,VWS V14.01,2013-05-05 21:45:00,
2013-05-05 15:50:00,72.3,30.2,30.06,ESE,104,0.0,1.0,21,0.00,,BKN200,0.00,350.00,VWS V14.01,2013-05-05 21:50:00,
2013-05-05 15:55:00,72.2,27.7,30.06,SE,141,1.0,3.0,19,0.00,,BKN200,0.00,517.00,VWS V14.01,2013-05-05 21:55:00,
2013-05-05 16:00:00,72.7,28.1,30.05,SE,142,0.0,3.0,19,0.00,,BKN200,0.00,564.00,VWS V14.01,2013-05-05 22:00:00,
2013-05-05 16:05:00,73.1,27.1,30.05,ESE,113,2.0,3.0,18,0.00,,BKN160,0.00,506.00,VWS V14.01,2013-05-05 22:05:00,
2013-05-05 16:10:00,73.7,28.9,30.05,SSE,154,0.0,1.0,19,0.00,,BKN160,0.00,387.00,VWS V14.01,2013-05-05 22:10:00,
2013-05-05 16:15:00,74.3,26.7,30.04,WSW,240,0.0,1.0,17,0.00,,BKN160,0.00,364.00,VWS V14.01,2013-05-05 22:15:00,
2013-05-05 16:20:00,74.4,28.2,30.04,WSW,240,0.0,2.0,18,0.00,,BKN160,0.00,443.00,VWS V14.01,2013-05-05 22:20:00,
2013-05-05 16:25:00,74.4,28.2,30.04,WSW,240,0.0,0.0,18,0.00,,BKN160,0.00,348.00,VWS V14.01,2013-05-05 22:25:00,
2013-05-05 16:30:00,74.5,26.9,30.04,WSW,240,3.0,3.0,17,0.00,,BKN160,0.00,316.00,VWS V14.01,2013-05-05 22:30:00,
2013-05-05 16:35:00,74.7,27.0,30.04,WSW,240,0.0,1.0,17,0.00,,BKN160,0.00,301.00,VWS V14.01,2013-05-05 22:35:00,
2013-05-05 16:40:00,74.9,27.2,30.03,WSW,240,0.0,1.0,17,0.00,,BKN160,0.00,229.00,VWS V14.01,2013-05-05 22:40:00,
2013-05-05 16:45:00,74.8,28.5,30.03,WSW,240,0.0,0.0,18,0.00,,BKN160,0.00,207.00,VWS V14.01,2013-05-05 22:45:00,
2013-05-05 16:50:00,74.7,27.0,30.04,WSW,240,3.0,3.0,17,0.00,,BKN160,0.00,179.00,VWS V14.01,2013-05-05 22:50:00,
2013-05-05 16:55:00,74.6,27.0,30.03,South,171,5.0,7.0,17,0.00,,BKN160,0.00,156.00,VWS V14.01,2013-05-05 22:55:00,
2013-05-05 17:00:00,74.2,28.0,30.04,ESE,119,2.0,4.0,18,0.00,,BKN160,0.00,128.00,VWS V14.01,2013-05-05 23:00:00,
2013-05-05 17:05:00,73.7,27.6,30.03,South,186,3.0,11.0,18,0.00,,BKN160,0.00,141.00,VWS V14.01,2013-05-05 23:05:00,
2013-05-05 17:10:00,72.9,27.0,30.04,South,182,2.0,7.0,18,0.00,,BKN160,0.00,102.00,VWS V14.01,2013-05-05 23:10:00,
2013-05-05 17:15:00,72.4,29.1,30.04,WSW,238,2.0,7.0,20,0.00,,BKN160,0.00,102.00,VWS V14.01,2013-05-05 23:15:00,
2013-05-05 17:20:00,72.1,28.9,30.04,WNW,292,3.0,5.0,20,0.00,,BKN160,0.00,132.00,VWS V14.01,2013-05-05 23:20:00,
2013-05-05 17:25:00,72.1,28.9,30.04,NW,310,0.0,2.0,20,0.00,,BKN160,0.00,116.00,VWS V14.01,2013-05-05 23:25:00,
2013-05-05 17:31:00,72.2,30.1,30.03,NW,309,0.0,1.0,21,0.00,,BKN160,0.00,102.00,VWS V14.01,2013-05-05 23:31:00,
2013-05-05 17:36:00,72.3,29.0,30.03,NW,309,0.0,2.0,20,0.00,,BKN160,0.00,113.00,VWS V14.01,2013-05-05 23:36:00,
2013-05-05 17:41:00,72.3,30.2,30.03,NW,309,0.0,2.0,21,0.00,,BKN160,0.00,114.00,VWS V14.01,2013-05-05 23:41:00,
2013-05-05 17:46:00,72.3,30.2,30.03,NW,309,0.0,0.0,21,0.00,,BKN160,0.00,116.00,VWS V14.01,2013-05-05 23:46:00,
2013-05-05 17:51:00,72.3,29.0,30.03,NW,309,0.0,0.0,20,0.00,,BKN160,0.00,95.00,VWS V14.01,2013-05-05 23:51:00,
2013-05-05 17:56:00,72.3,30.2,30.03,NW,309,0.0,0.0,21,0.00,,BKN160,0.00,84.00,VWS V14.01,2013-05-05 23:56:00,
2013-05-05 18:01:00,72.2,28.9,30.03,NW,309,0.0,3.0,20,0.00,,OVC150,0.00,56.00,VWS V14.01,2013-05-06 00:01:00,
2013-05-05 18:06:00,71.9,28.7,30.03,ESE,117,2.0,5.0,20,0.00,,OVC150,0.00,40.00,VWS V14.01,2013-05-06 00:06:00,
2013-05-05 18:11:00,71.7,28.5,30.03,ESE,111,2.0,3.0,20,0.00,,OVC150,0.00,37.00,VWS V14.01,2013-05-06 00:11:00,
2013-05-05 18:16:00,71.6,30.8,30.03,ESE,115,0.0,3.0,22,0.00,,OVC150,0.00,42.00,VWS V14.01,2013-05-06 00:16:00,
2013-05-05 18:21:00,71.2,29.3,30.03,SSW,192,3.0,7.0,21,0.00,,OVC150,0.00,46.00,VWS V14.01,2013-05-06 00:21:00,
2013-05-05 18:26:00,70.8,30.1,30.03,South,171,2.0,10.0,22,0.00,,OVC150,0.00,56.00,VWS V14.01,2013-05-06 00:26:00,
2013-05-05 18:31:00,70.3,30.8,30.04,South,176,2.0,11.0,23,0.00,,OVC150,0.00,62.00,VWS V14.01,2013-05-06 00:31:00,
2013-05-05 18:36:00,70.0,31.6,30.04,South,182,5.0,9.0,24,0.00,,OVC150,0.00,69.00,VWS V14.01,2013-05-06 00:36:00,
2013-05-05 18:41:00,69.8,31.4,30.04,South,180,0.0,6.0,24,0.00,,OVC150,0.00,63.00,VWS V14.01,2013-05-06 00:41:00,
2013-05-05 18:46:00,69.7,31.3,30.04,South,181,0.0,6.0,24,0.00,,OVC150,0.00,60.00,VWS V14.01,2013-05-06 00:46:00,
2013-05-05 18:51:00,69.7,31.3,30.04,South,181,0.0,2.0,24,0.00,,OVC150,0.00,53.00,VWS V14.01,2013-05-06 00:51:00,
2013-05-05 18:56:00,69.6,32.2,30.04,South,181,0.0,1.0,25,0.00,,OVC150,0.00,46.00,VWS V14.01,2013-05-06 00:56:00,
2013-05-05 19:01:00,69.6,32.2,30.04,South,181,1.0,2.0,25,0.00,,OVC150,0.00,32.00,VWS V14.01,2013-05-06 01:01:00,
2013-05-05 19:06:00,69.5,32.2,30.03,South,181,0.0,3.0,25,0.00,,OVC150,0.00,19.00,VWS V14.01,2013-05-06 01:06:00,
2013-05-05 19:11:00,69.4,32.1,30.03,South,181,0.0,2.0,25,0.00,,OVC150,0.00,18.00,VWS V14.01,2013-05-06 01:11:00,
2013-05-05 19:16:00,69.2,31.9,30.03,SSE,155,6.0,6.0,25,0.00,,OVC150,0.00,16.00,VWS V14.01,2013-05-06 01:16:00,
2013-05-05 19:21:00,69.0,31.8,30.03,SSE,157,1.0,4.0,25,0.00,,OVC150,0.00,16.00,VWS V14.01,2013-05-06 01:21:00,
2013-05-05 19:26:00,68.9,31.7,30.03,South,182,4.0,5.0,25,0.00,,OVC150,0.00,18.00,VWS V14.01,2013-05-06 01:26:00,
2013-05-05 19:31:00,68.9,31.7,30.03,SSW,204,0.0,6.0,25,0.00,,OVC150,0.00,18.00,VWS V14.01,2013-05-06 01:31:00,
2013-05-05 19:37:00,68.9,32.6,30.03,SSW,196,0.0,2.0,26,0.00,,OVC150,0.00,12.00,VWS V14.01,2013-05-06 01:37:00,
2013-05-05 19:42:00,68.8,32.5,30.03,SSW,194,1.0,3.0,26,0.00,,OVC150,0.00,7.00,VWS V14.01,2013-05-06 01:42:00,
2013-05-05 19:47:00,68.8,32.5,30.03,ESE,107,0.0,6.0,26,0.00,,OVC150,0.00,0.00,VWS V14.01,2013-05-06 01:47:00,
2013-05-05 19:52:00,68.6,32.4,30.03,ESE,109,1.0,5.0,26,0.00,,OVC150,0.00,0.00,VWS V14.01,2013-05-06 01:52:00,
2013-05-05 19:57:00,68.5,32.3,30.03,ESE,109,4.0,7.0,26,0.00,,OVC150,0.00,0.00,VWS V14.01,2013-05-06 01:57:00,
2013-05-05 20:02:00,68.3,32.1,30.03,East,88,5.0,10.0,26,0.00,,BKN150,0.00,0.00,VWS V14.01,2013-05-06 02:02:00,
2013-05-05 20:07:00,68.0,32.8,30.03,East,101,5.0,10.0,27,0.00,,BKN150,0.00,0.00,VWS V14.01,2013-05-06 02:07:00,
2013-05-05 20:12:00,67.8,32.6,30.03,East,96,1.0,7.0,27,0.00,,BKN150,0.00,0.00,VWS V14.01,2013-05-06 02:12:00,
2013-05-05 20:17:00,67.5,32.4,30.03,ENE,73,0.0,7.0,27,0.00,,BKN150,0.00,0.00,VWS V14.01,2013-05-06 02:17:00,
2013-05-05 20:22:00,67.3,33.1,30.03,ENE,74,3.0,5.0,28,0.00,,BKN150,0.00,0.00,VWS V14.01,2013-05-06 02:22:00,
2013-05-05 20:27:00,67.1,32.9,30.03,East,81,1.0,4.0,28,0.00,,BKN150,0.00,0.00,VWS V14.01,2013-05-06 02:27:00,
2013-05-05 20:32:00,66.8,32.7,30.03,East,81,0.0,2.0,28,0.00,,BKN150,0.00,0.00,VWS V14.01,2013-05-06 02:32:00,
2013-05-05 20:37:00,66.7,32.6,30.03,East,81,0.0,0.0,28,0.00,,BKN150,0.00,0.00,VWS V14.01,2013-05-06 02:37:00,
2013-05-05 20:42:00,66.6,32.5,30.03,East,81,0.0,2.0,28,0.00,,BKN150,0.00,0.00,VWS V14.01,2013-05-06 02:42:00,
2013-05-05 20:47:00,66.5,33.3,30.03,East,81,0.0,0.0,29,0.00,,BKN150,0.00,0.00,VWS V14.01,2013-05-06 02:47:00,
2013-05-05 20:52:00,66.3,33.1,30.04,ESE,102,0.0,8.0,29,0.00,,BKN150,0.00,0.00,VWS V14.01,2013-05-06 02:52:00,
2013-05-05 20:57:00,66.1,32.1,30.04,ESE,109,4.0,7.0,28,0.00,,BKN150,0.00,0.00,VWS V14.01,2013-05-06 02:57:00,
2013-05-05 21:02:00,66.0,30.2,30.04,ESE,119,5.0,7.0,26,0.00,,BKN150,0.00,0.00,VWS V14.01,2013-05-06 03:02:00,
2013-05-05 21:07:00,66.0,30.2,30.04,South,178,0.0,11.0,26,0.00,,BKN150,0.00,0.00,VWS V14.01,2013-05-06 03:07:00,
2013-05-05 21:12:00,66.0,28.2,30.03,ESE,115,10.0,13.0,24,0.00,,BKN150,0.00,0.00,VWS V14.01,2013-05-06 03:12:00,
2013-05-05 21:17:00,66.1,27.2,30.04,East,92,9.0,13.0,23,0.00,,BKN150,0.00,0.00,VWS V14.01,2013-05-06 03:17:00,
2013-05-05 21:22:00,66.1,26.2,30.03,NE,54,5.0,10.0,22,0.00,,BKN150,0.00,0.00,VWS V14.01,2013-05-06 03:22:00,
2013-05-05 21:27:00,66.1,26.2,30.03,East,79,3.0,9.0,22,0.00,,BKN150,0.00,0.00,VWS V14.01,2013-05-06 03:27:00,
2013-05-05 21:32:00,65.9,24.9,30.04,ESE,103,4.0,11.0,21,0.00,,BKN150,0.00,0.00,VWS V14.01,2013-05-06 03:32:00,
2013-05-05 21:37:00,65.8,24.8,30.04,East,80,1.0,5.0,21,0.00,,BKN150,0.00,0.00,VWS V14.01,2013-05-06 03:37:00,
2013-05-05 21:42:00,65.7,23.6,30.04,ESE,119,2.0,5.0,20,0.00,,BKN150,0.00,0.00,VWS V14.01,2013-05-06 03:42:00,
2013-05-05 21:47:00,65.4,22.1,30.05,SE,127,4.0,8.0,19,0.00,,BKN150,0.00,0.00,VWS V14.01,2013-05-06 03:47:00,
2013-05-05 21:52:00,65.1,19.2,30.05,SSE,157,1.0,12.0,17,0.00,,BKN150,0.00,0.00,VWS V14.01,2013-05-06 03:52:00,
2013-05-05 21:57:00,64.8,19.0,30.05,East,93,3.0,12.0,17,0.00,,BKN150,0.00,0.00,VWS V14.01,2013-05-06 03:57:00,
2013-05-05 22:01:00,64.6,18.8,30.05,SSE,161,1.0,7.0,17,0.00,,OVC110,0.00,0.00,VWS V14.01,2013-05-06 04:01:00,
2013-05-05 22:02:00,64.6,17.4,30.05,ESE,103,11.0,11.0,16,0.00,,OVC110,0.00,0.00,VWS V14.01,2013-05-06 04:02:00,
2013-05-05 22:03:00,64.5,18.8,30.05,East,99,2.0,16.0,17,0.00,,OVC110,0.00,0.00,VWS V14.01,2013-05-06 04:03:00,
2013-05-05 22:08:00,64.3,17.2,30.05,SE,127,13.0,13.0,16,0.00,,OVC110,0.00,0.00,VWS V14.01,2013-05-06 04:08:00,
2013-05-05 22:13:00,64.1,17.0,30.05,ESE,105,0.0,15.0,16,0.00,,OVC110,0.00,0.00,VWS V14.01,2013-05-06 04:13:00,
2013-05-05 22:18:00,63.9,16.9,30.06,East,93,3.0,10.0,16,0.00,,OVC110,0.00,0.00,VWS V14.01,2013-05-06 04:18:00,
2013-05-05 22:23:00,63.8,16.8,30.05,ENE,75,3.0,13.0,16,0.00,,OVC110,0.00,0.00,VWS V14.01,2013-05-06 04:23:00,
2013-05-05 22:28:00,63.6,16.6,30.06,ESE,105,0.0,9.0,16,0.00,,OVC110,0.00,0.00,VWS V14.01,2013-05-06 04:28:00,
2013-05-05 22:33:00,63.5,17.9,30.05,ESE,108,7.0,8.0,17,0.00,,OVC110,0.00,0.00,VWS V14.01,2013-05-06 04:33:00,
2013-05-05 22:38:00,63.4,16.5,30.05,East,92,6.0,16.0,16,0.00,,OVC110,0.00,0.00,VWS V14.01,2013-05-06 04:38:00,
2013-05-05 22:43:00,63.4,17.9,30.05,ESE,103,0.0,7.0,17,0.00,,OVC110,0.00,0.00,VWS V14.01,2013-05-06 04:43:00,
2013-05-05 22:48:00,63.3,17.8,30.05,ENE,71,1.0,8.0,17,0.00,,OVC110,0.00,0.00,VWS V14.01,2013-05-06 04:48:00,
2013-05-05 22:53:00,63.2,17.7,30.06,ESE,119,2.0,9.0,17,0.00,,OVC110,0.00,0.00,VWS V14.01,2013-05-06 04:53:00,
2013-05-05 22:58:00,63.2,17.7,30.05,ESE,123,1.0,8.0,17,0.00,,OVC110,0.00,0.00,VWS V14.01,2013-05-06 04:58:00,
2013-05-05 23:03:00,63.1,17.6,30.05,ESE,111,0.0,3.0,17,0.00,,BKN150,0.00,0.00,VWS V14.01,2013-05-06 05:03:00,
2013-05-05 23:08:00,63.0,17.5,30.05,East,101,1.0,7.0,17,0.00,,BKN150,0.00,0.00,VWS V14.01,2013-05-06 05:08:00,
2013-05-05 23:13:00,63.0,18.9,30.05,ESE,115,0.0,3.0,18,0.00,,BKN150,0.00,0.00,VWS V14.01,2013-05-06 05:13:00,
2013-05-05 23:18:00,62.9,18.8,30.05,ESE,115,0.0,4.0,18,0.00,,BKN150,0.00,0.00,VWS V14.01,2013-05-06 05:18:00,
2013-05-05 23:23:00,62.8,18.7,30.05,ESE,115,0.0,3.0,18,0.00,,BKN150,0.00,0.00,VWS V14.01,2013-05-06 05:23:00,
2013-05-05 23:28:00,62.7,18.6,30.05,ESE,115,0.0,2.0,18,0.00,,BKN150,0.00,0.00,VWS V14.01,2013-05-06 05:28:00,
2013-05-05 23:33:00,62.6,19.8,30.05,ESE,115,0.0,1.0,19,0.00,,BKN150,0.00,0.00,VWS V14.01,2013-05-06 05:33:00,
2013-05-05 23:38:00,62.5,19.7,30.05,ESE,115,0.0,0.0,19,0.00,,BKN150,0.00,0.00,VWS V14.01,2013-05-06 05:38:00,
2013-05-05 23:43:00,62.4,19.6,30.05,ESE,115,0.0,0.0,19,0.00,,BKN150,0.00,0.00,VWS V14.01,2013-05-06 05:43:00,
2013-05-05 23:48:00,62.3,19.5,30.05,ESE,115,1.0,3.0,19,0.00,,BKN150,0.00,0.00,VWS V14.01,2013-05-06 05:48:00,
2013-05-05 23:53:00,62.3,18.3,30.05,ENE,71,1.0,8.0,18,0.00,,BKN150,0.00,0.00,VWS V14.01,2013-05-06 05:53:00,
2013-05-05 23:58:00,62.4,18.4,30.05,North,360,6.0,8.0,18,0.00,,BKN150,0.00,0.00,VWS V14.01,2013-05-06 05:58:00,